Tracking 19969 objects as of 12-Nov-2019
Live streaming from Space Station
objects crossing your sky now
Track the group of recently launched Starlink satellites

COSMOS 660

Track COSMOS 660 now!
10-day predictions
COSMOS 660 is classified as:


NORAD ID: 7337
Int'l Code: 1974-044A
Perigee: 380.4 km
Apogee: 1,158.7 km
Inclination: 82.9 °
Period: 100.1 minutes
Semi major axis: 7140 km
RCS: 2.9855 m2 (large)
Launch date: June 18, 1974
Source: Commonwealth of Independent States (former USSR) (CIS)
Launch site: PLESETSK MISSILE AND SPACE COMPLEX (PKMTR)
aabbcc
Your satellite tracking list
Your tracking list is empty




NASA's NSSDC Master Catalog

Two Line Element Set (TLE):
1  7337U 74044A   19315.90139487 +.00000736 +00000-0 +34957-4 0  9997
2  7337 082.9442 134.4992 0545000 074.1676 291.8882 14.38820076292828
Source of the keplerian elements: AFSPC